Weather History for Adana, Turkey

Change the Weather History Date:

Saturday, January 5, 2013

  Actual Average Record
Temperature  
Mean Temperature 50 °F -  
Max Temperature 53 °F 57 °F 64 °F (1997)
Min Temperature 46 °F 39 °F 35 °F (2005)
Degree Days  
Heating Degree Days 16    
Moisture  
Dew Point 42 °F    
Average Humidity 74    
Maximum Humidity 87    
Minimum Humidity 62    
Precipitation  
Precipitation 0.00 in 0.15 in - ()
Sea Level Pressure  
Sea Level Pressure 29.82 in    
Wind  
Wind Speed 5 mph ()    
Max Wind Speed 10 mph    
Max Gust Speed -    
Visibility 3.6 miles    
Events Rain    
Averages and records for this station are not official NWS values.
T = Trace of Precipitation, MM = Missing Value Source: Averaged Metar Reports

Daily Weather History Graph

Daily Weather History Graph

Search for Another Location

Airport:

Trip Planner

Search our weather history database for the weather conditions in past years. The results will help you decide how hot, cold, wet, or windy it might be!

Date:

Astronomy

Jan. 05, 2013 Rise Set
Actual Time 6:52 AM EET 4:36 PM EET
Civil Twilight 6:23 AM EET 5:04 PM EET
Nautical Twilight 5:51 AM EET 5:37 PM EET
Astronomical Twilight 5:19 AM EET 6:08 PM EET
Moon No Moon Rise 11:09 AM EET (1/5)
Length of Visible Light 10h 41m
Length of Day
9h 43m
Waning Gibbous, 47% of the Moon is Illuminated
Jan 5
Waning Gibbous
Jan 11
New
Jan 19
First Quarter
Jan 27
Full
Feb 3
Last Quarter

Hourly Weather History & Observations

Time (EET) Temp. Windchill Dew Point Humidity Pressure Visibility Wind Dir Wind Speed Gust Speed Precip Events Conditions
12:20 AM 51.8 °F - 39.2 °F 62% 29.92 in 3.1 mi North 3.5 mph - N/A   Haze
12:50 AM 50.0 °F - 41.0 °F 71% 29.92 in 3.1 mi Variable 1.2 mph - N/A   Mostly Cloudy
1:20 AM 48.2 °F - 42.8 °F 82% 29.92 in 3.1 mi West 3.5 mph - N/A   Mostly Cloudy
1:50 AM 48.2 °F - 41.0 °F 76% 29.92 in 3.1 mi SW 4.6 mph - N/A   Mostly Cloudy
2:20 AM 48.2 °F - 42.8 °F 82% 29.92 in 3.1 mi Variable 1.2 mph - N/A Rain Light Rain Showers
2:50 AM 48.2 °F - 42.8 °F 82% 29.92 in 3.1 mi NW 2.3 mph - N/A Rain Light Rain Showers
3:20 AM 48.2 °F - 42.8 °F 82% 29.89 in 3.1 mi NNE 5.8 mph - N/A Rain Light Rain Showers
3:50 AM 48.2 °F - 44.6 °F 87% 29.89 in 3.1 mi NNE 6.9 mph - N/A Rain Light Rain Showers
4:20 AM 50.0 °F - 42.8 °F 76% 29.89 in 3.1 mi North 3.5 mph - N/A Rain Light Rain Showers
4:50 AM 50.0 °F - 42.8 °F 76% 29.86 in 3.1 mi North 5.8 mph - N/A Rain Light Rain Showers
5:20 AM 48.2 °F - 42.8 °F 82% 29.86 in 3.1 mi NE 6.9 mph - N/A   Mostly Cloudy
5:50 AM 48.2 °F - 42.8 °F 82% 29.86 in 3.1 mi NE 8.1 mph - N/A   Mostly Cloudy
6:20 AM 48.2 °F - 42.8 °F 82% 29.86 in 3.1 mi ENE 8.1 mph - N/A   Mostly Cloudy
6:50 AM 48.2 °F - 42.8 °F 82% 29.86 in 3.1 mi NNE 6.9 mph - N/A   Mostly Cloudy
7:20 AM 50.0 °F - 42.8 °F 76% 29.86 in 3.1 mi NE 8.1 mph - N/A   Mostly Cloudy
7:50 AM 50.0 °F - 42.8 °F 76% 29.86 in 6.2 mi NE 8.1 mph - N/A   Mostly Cloudy
8:20 AM 50.0 °F - 42.8 °F 76% 29.86 in 6.2 mi NNE 8.1 mph - N/A Rain Light Rain Showers
8:50 AM 50.0 °F - 42.8 °F 76% 29.86 in 6.2 mi NNE 8.1 mph - N/A Rain Light Rain Showers
9:20 AM 50.0 °F - 42.8 °F 76% 29.86 in 6.2 mi North 4.6 mph - N/A Rain Light Rain Showers
9:50 AM 50.0 °F - 42.8 °F 76% 29.86 in 6.2 mi North 6.9 mph - N/A Rain Light Rain Showers
10:20 AM 50.0 °F - 41.0 °F 71% 29.86 in 6.2 mi North 6.9 mph - N/A Rain Light Rain Showers
10:50 AM 50.0 °F - 41.0 °F 71% 29.83 in 6.2 mi North 4.6 mph - N/A Rain Light Rain Showers
11:20 AM 51.8 °F - 41.0 °F 67% 29.83 in 6.2 mi NNE 8.1 mph - N/A   Mostly Cloudy
11:50 AM 51.8 °F - 42.8 °F 71% 29.83 in 3.1 mi NE 5.8 mph - N/A Rain Light Rain Showers
12:20 PM 51.8 °F - 42.8 °F 71% 29.80 in 3.1 mi NNE 5.8 mph - N/A Rain Light Rain Showers
12:50 PM 51.8 °F - 42.8 °F 71% 29.80 in 3.1 mi NE 6.9 mph - N/A Rain Light Rain Showers
1:20 PM 51.8 °F - 42.8 °F 71% 29.77 in 3.1 mi NE 8.1 mph - N/A   Haze
1:50 PM 53.6 °F - 41.0 °F 62% 29.77 in 3.1 mi NE 10.4 mph - N/A   Haze
2:20 PM 53.6 °F - 41.0 °F 62% 29.77 in 3.1 mi NE 8.1 mph - N/A   Haze
2:50 PM 53.6 °F - 41.0 °F 62% 29.77 in 3.1 mi NE 8.1 mph - N/A   Haze
3:20 PM 51.8 °F - 41.0 °F 67% 29.77 in 3.1 mi NNE 10.4 mph - N/A   Haze
3:50 PM 51.8 °F - 41.0 °F 67% 29.77 in 3.1 mi NE 9.2 mph - N/A   Haze
4:20 PM 51.8 °F - 41.0 °F 67% 29.77 in 3.1 mi NNE 8.1 mph - N/A   Mostly Cloudy
4:50 PM 50.0 °F - 41.0 °F 71% 29.77 in 3.1 mi NE 6.9 mph - N/A   Mostly Cloudy
5:20 PM 50.0 °F - 41.0 °F 71% 29.77 in 3.1 mi NE 5.8 mph - N/A   Mostly Cloudy
5:50 PM 50.0 °F - 41.0 °F 71% 29.77 in 3.1 mi NNE 8.1 mph - N/A   Mostly Cloudy
6:20 PM 48.2 °F - 41.0 °F 76% 29.77 in 3.1 mi NNE 8.1 mph - N/A   Mostly Cloudy
6:50 PM 48.2 °F - 41.0 °F 76% 29.77 in 3.1 mi NE 6.9 mph - N/A   Mostly Cloudy
7:20 PM 48.2 °F - 41.0 °F 76% 29.77 in 3.1 mi NE 8.1 mph - N/A   Mostly Cloudy
7:50 PM 46.4 °F 42.9 °F 41.0 °F 81% 29.77 in 3.1 mi NNE 6.9 mph - N/A   Mostly Cloudy
8:20 PM 46.4 °F 42.9 °F 41.0 °F 81% 29.77 in 3.1 mi NNE 6.9 mph - N/A   Mostly Cloudy
8:50 PM 48.2 °F - 39.2 °F 71% 29.74 in 3.1 mi NNE 8.1 mph - N/A   Mostly Cloudy
9:20 PM 48.2 °F - 39.2 °F 71% 29.74 in 3.1 mi NE 5.8 mph - N/A   Mostly Cloudy
9:50 PM 48.2 °F - 39.2 °F 71% 29.74 in 3.1 mi NE 6.9 mph - N/A   Mostly Cloudy
10:20 PM 50.0 °F - 39.2 °F 66% 29.74 in 3.1 mi NNE 6.9 mph - N/A   Haze
10:50 PM 48.2 °F - 41.0 °F 76% 29.74 in 3.1 mi NNE 4.6 mph - N/A   Mostly Cloudy
11:20 PM 50.0 °F - 39.2 °F 66% 29.74 in 3.1 mi NNE 10.4 mph - N/A   Mostly Cloudy
11:50 PM 50.0 °F - 39.2 °F 66% 29.74 in 3.1 mi NE 8.1 mph - N/A   Mostly Cloudy